,,,PA_Meas_PMT16A,,PR_Meas_QMR101_102,,RH_Meas_QMH101,,SR_Meas_QMS101,,TA_Meas_QMH101,,GenWind,,GenWind,
date,time,status,PA,status,PR,status,RH,status,SR,status,TA,status,DirAvg,status,SpdAvg,
2011-07-23, 00:00:05,VALID,999.91,VALID,0,VALID,79.1344,VALID,0,VALID,24.4818,VALID,132,VALID,1.62383,
2011-07-23, 00:01:05,VALID,999.895,VALID,0,VALID,78.8521,VALID,0,VALID,24.5013,VALID,112,VALID,1.50977,
2011-07-23, 00:02:05,VALID,999.891,VALID,0,VALID,78.7072,VALID,0,VALID,24.5013,VALID,126,VALID,1.6418,
2011-07-23, 00:03:05,VALID,999.884,VALID,0,VALID,78.7148,VALID,0,VALID,24.5209,VALID,122,VALID,1.63281,
2011-07-23, 00:04:05,VALID,999.88,VALID,0,VALID,78.7453,VALID,0,VALID,24.5209,VALID,125,VALID,1.58789,
2011-07-23, 00:05:05,VALID,999.871,VALID,0,VALID,78.6309,VALID,0,VALID,24.5404,VALID,129,VALID,1.64922,
2011-07-23, 00:06:05,VALID,999.853,VALID,0,VALID,78.6919,VALID,0,VALID,24.5209,VALID,124,VALID,1.18867,
2011-07-23, 00:07:05,VALID,999.818,VALID,0,VALID,78.9818,VALID,0,VALID,24.4995,VALID,116,VALID,1.4875,
2011-07-23, 00:08:05,VALID,999.829,VALID,0,VALID,79.02,VALID,0,VALID,24.5013,VALID,120,VALID,1.11406,
2011-07-23, 00:09:05,VALID,999.842,VALID,0,VALID,79.2336,VALID,0,VALID,24.4623,VALID,121,VALID,1.31992,
2011-07-23, 00:10:05,VALID,999.839,VALID,0,VALID,79.4625,VALID,0,VALID,24.4233,VALID,124,VALID,1.29023,
2011-07-23, 00:11:05,VALID,999.821,VALID,0,VALID,79.2107,VALID,0,VALID,24.3629,VALID,131,VALID,1.30273,
2011-07-23, 00:12:05,VALID,999.834,VALID,0,VALID,79.2412,VALID,0,VALID,24.3842,VALID,125,VALID,1.39414,
2011-07-23, 00:13:05,VALID,999.874,VALID,0,VALID,79.3709,VALID,0,VALID,24.3842,VALID,121,VALID,1.26758,
2011-07-23, 00:14:05,VALID,999.827,VALID,0,VALID,79.3328,VALID,0,VALID,24.3842,VALID,111,VALID,1.23867,
2011-07-23, 00:15:05,VALID,999.848,VALID,0,VALID,79.4167,VALID,0,VALID,24.3647,VALID,129,VALID,1.10977,
2011-07-23, 00:16:05,VALID,999.851,VALID,0,VALID,79.3175,VALID,0,VALID,24.3452,VALID,130,VALID,1.04805,
2011-07-23, 00:17:05,VALID,999.867,VALID,0,VALID,79.3709,VALID,0,VALID,24.3238,VALID,135,VALID,0.850781,
2011-07-23, 00:18:05,VALID,999.854,VALID,0,VALID,79.4091,VALID,0,VALID,24.3257,VALID,138,VALID,0.716016,
2011-07-23, 00:19:05,VALID,999.828,VALID,0,VALID,79.3328,VALID,0,VALID,24.3043,VALID,124,VALID,0.975,
2011-07-23, 00:20:05,VALID,999.838,VALID,0,VALID,79.3404,VALID,0,VALID,24.3062,VALID,128,VALID,1.03516,
2011-07-23, 00:21:05,VALID,999.839,VALID,0,VALID,79.4396,VALID,0,VALID,24.3062,VALID,146,VALID,0.867969,
2011-07-23, 00:22:05,VALID,999.804,VALID,0,VALID,79.5769,VALID,0,VALID,24.2848,VALID,146,VALID,0.669922,
2011-07-23, 00:23:05,VALID,999.795,VALID,0,VALID,79.4625,VALID,0,VALID,24.2866,VALID,134,VALID,1.12969,
2011-07-23, 00:24:05,VALID,999.793,VALID,0,VALID,79.6303,VALID,0,VALID,24.3062,VALID,138,VALID,1.17148,
2011-07-23, 00:25:05,VALID,999.781,VALID,0,VALID,79.7143,VALID,0,VALID,24.2653,VALID,132,VALID,1.25117,
2011-07-23, 00:26:05,VALID,999.728,VALID,0,VALID,79.7372,VALID,0,VALID,24.2671,VALID,124,VALID,1.25547,
2011-07-23, 00:27:05,VALID,999.71,VALID,0,VALID,79.905,VALID,0,VALID,24.2263,VALID,134,VALID,1.19414,
2011-07-23, 00:28:05,VALID,999.709,VALID,0,VALID,79.9355,VALID,0,VALID,24.2281,VALID,121,VALID,1.37383,
2011-07-23, 00:29:05,VALID,999.686,VALID,0,VALID,79.9203,VALID,0,VALID,24.2086,VALID,119,VALID,1.61172,
2011-07-23, 00:30:05,VALID,999.657,VALID,0,VALID,79.9813,VALID,0,VALID,24.2086,VALID,120,VALID,1.45664,
2011-07-23, 00:31:05,VALID,999.677,VALID,0,VALID,80.0347,VALID,0,VALID,24.2086,VALID,122,VALID,1.36719,
2011-07-23, 00:32:05,VALID,999.66,VALID,0,VALID,79.5769,VALID,0,VALID,24.2086,VALID,128,VALID,1.87344,
2011-07-23, 00:33:05,VALID,999.656,VALID,0,VALID,79.5617,VALID,0,VALID,24.2476,VALID,132,VALID,1.75273,
2011-07-23, 00:34:05,VALID,999.643,VALID,0,VALID,79.6761,VALID,0,VALID,24.2671,VALID,136,VALID,1.28984,
2011-07-23, 00:35:04,VALID,999.639,VALID,0,VALID,79.7906,VALID,0,VALID,24.2458,VALID,133,VALID,1.12461,
2011-07-23, 00:36:04,VALID,999.612,VALID,0,VALID,79.8135,VALID,0,VALID,24.2263,VALID,144,VALID,1.0793,
2011-07-23, 00:37:04,VALID,999.606,VALID,0,VALID,79.905,VALID,0,VALID,24.2067,VALID,143,VALID,1.38516,
2011-07-23, 00:38:04,VALID,999.576,VALID,0,VALID,80.1034,VALID,0,VALID,24.2086,VALID,149,VALID,1.11016,
2011-07-23, 00:39:04,VALID,999.585,VALID,0,VALID,80.2789,VALID,0,VALID,24.1891,VALID,141,VALID,1.425,
2011-07-23, 00:40:04,VALID,999.545,VALID,0,VALID,80.2407,VALID,0,VALID,24.1891,VALID,134,VALID,1.97187,
2011-07-23, 00:41:04,VALID,999.512,VALID,0,VALID,80.4467,VALID,0,VALID,24.1696,VALID,137,VALID,1.33398,
2011-07-23, 00:42:04,VALID,999.503,VALID,0,VALID,80.584,VALID,0.112286,VALID,24.1482,VALID,128,VALID,1.44492,
2011-07-23, 00:43:04,VALID,999.448,VALID,0,VALID,80.8053,VALID,0,VALID,24.1092,VALID,130,VALID,1.29922,
2011-07-23, 00:44:04,VALID,999.442,VALID,0,VALID,80.7595,VALID,0,VALID,24.1305,VALID,128,VALID,1.27813,
2011-07-23, 00:45:04,VALID,999.432,VALID,0,VALID,80.9655,VALID,0,VALID,24.0897,VALID,121,VALID,1.55742,
2011-07-23, 00:46:04,VALID,999.437,VALID,0,VALID,81.347,VALID,0,VALID,24.072,VALID,126,VALID,1.26758,
2011-07-23, 00:47:04,VALID,999.423,VALID,0,VALID,81.5149,VALID,0,VALID,24.072,VALID,127,VALID,1.31602,
2011-07-23, 00:48:04,VALID,999.381,VALID,0,VALID,81.5072,VALID,0,VALID,24.0329,VALID,121,VALID,1.53516,
2011-07-23, 00:49:04,VALID,999.384,VALID,0,VALID,81.4233,VALID,0,VALID,24.0525,VALID,122,VALID,1.3207,
2011-07-23, 00:50:04,VALID,999.394,VALID,0,VALID,81.4767,VALID,0,VALID,24.072,VALID,122,VALID,1.54414,
2011-07-23, 00:51:04,VALID,999.353,VALID,0,VALID,81.3928,VALID,0,VALID,24.072,VALID,126,VALID,1.49023,
2011-07-23, 00:52:04,VALID,999.377,VALID,0,VALID,81.3012,VALID,0,VALID,24.0701,VALID,122,VALID,1.18867,
2011-07-23, 00:53:04,VALID,999.353,VALID,0,VALID,81.2326,VALID,0,VALID,24.0915,VALID,134,VALID,1.19258,
2011-07-23, 00:54:04,VALID,999.344,VALID,0,VALID,80.9045,VALID,0,VALID,24.0701,VALID,114,VALID,1.45039,
2011-07-23, 00:55:04,VALID,999.318,VALID,0,VALID,80.7977,VALID,0,VALID,24.0915,VALID,118,VALID,1.09844,
2011-07-23, 00:56:04,VALID,999.325,VALID,0,VALID,80.4009,VALID,0,VALID,24.0897,VALID,119,VALID,1.54141,
2011-07-23, 00:57:04,VALID,999.287,VALID,0,VALID,79.905,VALID,0,VALID,24.1305,VALID,120,VALID,1.55117,
2011-07-23, 00:58:04,VALID,999.288,VALID,0,VALID,79.7372,VALID,0,VALID,24.1696,VALID,121,VALID,1.89258,
2011-07-23, 00:59:04,VALID,999.293,VALID,0,VALID,79.5464,VALID,0,VALID,24.2086,VALID,127,VALID,1.25898,
2011-07-23, 01:00:04,VALID,999.281,VALID,0,VALID,79.3862,VALID,0,VALID,24.2281,VALID,122,VALID,1.19648,
2011-07-23, 01:01:04,VALID,999.254,VALID,0,VALID,78.9132,VALID,0,VALID,24.2458,VALID,133,VALID,1.78711,
2011-07-23, 01:02:04,VALID,999.254,VALID,0,VALID,79.0429,VALID,0,VALID,24.2848,VALID,103,VALID,1.05586,
2011-07-23, 01:03:04,VALID,999.197,VALID,0,VALID,78.9437,VALID,0,VALID,24.3043,VALID,126,VALID,1.6707,
2011-07-23, 01:04:04,VALID,999.204,VALID,0,VALID,78.6538,VALID,0,VALID,24.3043,VALID,126,VALID,1.99922,
2011-07-23, 01:05:04,VALID,999.196,VALID,0,VALID,78.1578,VALID,0,VALID,24.3238,VALID,126,VALID,1.89297,
2011-07-23, 01:06:04,VALID,999.165,VALID,0,VALID,78.4325,VALID,0,VALID,24.3629,VALID,142,VALID,0.94375,
2011-07-23, 01:07:04,VALID,999.188,VALID,0,VALID,78.1426,VALID,0,VALID,24.3629,VALID,154,VALID,1.55078,
2011-07-23, 01:08:04,VALID,999.188,VALID,0,VALID,78.1273,VALID,0,VALID,24.3824,VALID,148,VALID,1.07695,
2011-07-23, 01:09:04,VALID,999.172,VALID,0,VALID,78.0205,VALID,0,VALID,24.4233,VALID,140,VALID,1.35664,
2011-07-23, 01:10:04,VALID,999.157,VALID,0,VALID,78.0739,VALID,0,VALID,24.4037,VALID,148,VALID,1.0832,
2011-07-23, 01:11:04,VALID,999.146,VALID,0,VALID,77.9747,VALID,0.112286,VALID,24.4037,VALID,142,VALID,1.12891,
2011-07-23, 01:12:04,VALID,999.138,VALID,0,VALID,77.99,VALID,0,VALID,24.4037,VALID,148,VALID,0.749219,
2011-07-23, 01:13:04,VALID,999.142,VALID,0,VALID,77.9595,VALID,0,VALID,24.3824,VALID,158,VALID,1.03555,
2011-07-23, 01:14:04,VALID,999.12,VALID,0,VALID,77.9289,VALID,0,VALID,24.4037,VALID,164,VALID,0.749609,
2011-07-23, 01:15:04,VALID,999.094,VALID,0,VALID,77.9747,VALID,0,VALID,24.4037,VALID,148,VALID,0.705859,
2011-07-23, 01:16:04,VALID,999.082,VALID,0,VALID,77.9366,VALID,0,VALID,24.3842,VALID,142,VALID,1.0082,
2011-07-23, 01:17:04,VALID,999.071,VALID,0,VALID,77.5932,VALID,0,VALID,24.4037,VALID,143,VALID,1.01484,
2011-07-23, 01:18:04,VALID,999.051,VALID,0,VALID,77.639,VALID,0,VALID,24.4233,VALID,147,VALID,0.687109,
2011-07-23, 01:19:04,VALID,999.055,VALID,0,VALID,77.4406,VALID,0,VALID,24.4428,VALID,147,VALID,0.894922,
2011-07-23, 01:20:04,VALID,999.02,VALID,0,VALID,77.4635,VALID,0,VALID,24.4623,VALID,153,VALID,0.620313,
2011-07-23, 01:21:04,VALID,999.053,VALID,0,VALID,77.3186,VALID,0,VALID,24.4818,VALID,148,VALID,0.778516,
2011-07-23, 01:22:04,VALID,998.977,VALID,0,VALID,77.2957,VALID,0,VALID,24.4623,VALID,144,VALID,0.639844,
2011-07-23, 01:23:04,VALID,998.991,VALID,0,VALID,77.4788,VALID,0,VALID,24.4623,VALID,127,VALID,0.781641,
2011-07-23, 01:24:04,VALID,998.978,VALID,0,VALID,77.6314,VALID,0,VALID,24.4428,VALID,127,VALID,0.776563,
2011-07-23, 01:25:04,VALID,998.98,VALID,0,VALID,77.3872,VALID,0,VALID,24.4233,VALID,116,VALID,0.873438,
2011-07-23, 01:26:04,VALID,998.968,VALID,0,VALID,77.6161,VALID,0,VALID,24.4037,VALID,117,VALID,0.625,
2011-07-23, 01:27:04,VALID,998.971,VALID,0,VALID,77.9518,VALID,0,VALID,24.4056,VALID,122,VALID,0.504297,
2011-07-23, 01:28:04,VALID,998.943,VALID,0,VALID,77.6619,VALID,0,VALID,24.3452,VALID,125,VALID,0.779688,
2011-07-23, 01:29:04,VALID,998.932,VALID,0,VALID,77.7077,VALID,0,VALID,24.3238,VALID,126,VALID,0.729297,
2011-07-23, 01:30:04,VALID,998.933,VALID,0,VALID,77.6009,VALID,0,VALID,24.3257,VALID,121,VALID,0.978516,
2011-07-23, 01:31:04,VALID,998.94,VALID,0,VALID,77.6314,VALID,0,VALID,24.3257,VALID,118,VALID,0.720703,
2011-07-23, 01:32:04,VALID,998.915,VALID,0,VALID,77.6848,VALID,0,VALID,24.3257,VALID,129,VALID,0.630078,
2011-07-23, 01:33:04,VALID,998.935,VALID,0,VALID,77.2499,VALID,0,VALID,24.3257,VALID,124,VALID,1.05742,
2011-07-23, 01:34:04,VALID,998.943,VALID,0,VALID,77.3491,VALID,0,VALID,24.3452,VALID,124,VALID,0.864453,
2011-07-23, 01:35:04,VALID,998.945,VALID,0,VALID,77.2041,VALID,0,VALID,24.3647,VALID,144,VALID,0.925781,
2011-07-23, 01:36:04,VALID,998.925,VALID,0,VALID,77.3491,VALID,0,VALID,24.3433,VALID,142,VALID,0.409375,
2011-07-23, 01:37:04,VALID,998.969,VALID,0,VALID,77.2575,VALID,0,VALID,24.3452,VALID,127,VALID,0.601953,
2011-07-23, 01:38:04,VALID,998.926,VALID,0,VALID,77.3796,VALID,0,VALID,24.3238,VALID,115,VALID,0.534375,
2011-07-23, 01:39:04,VALID,998.93,VALID,0,VALID,77.5856,VALID,0,VALID,24.3452,VALID,115,VALID,0.0214844,
2011-07-23, 01:40:04,VALID,998.909,VALID,0,VALID,78.5927,VALID,0,VALID,24.3062,VALID,94,VALID,0.415234,
2011-07-23, 01:41:04,VALID,998.937,VALID,0,VALID,79.2946,VALID,0,VALID,24.2263,VALID,360,VALID,0.753906,
2011-07-23, 01:42:04,VALID,998.954,VALID,0,VALID,79.9432,VALID,0,VALID,24.15,VALID,341,VALID,0.529688,
2011-07-23, 01:43:04,VALID,998.942,VALID,0,VALID,80.8282,VALID,0,VALID,24.0311,VALID,341,VALID,0.78125,
2011-07-23, 01:44:04,VALID,998.922,VALID,0,VALID,81.7132,VALID,0,VALID,23.9744,VALID,341,VALID,0.718359,
2011-07-23, 01:45:04,VALID,998.932,VALID,0,VALID,81.9955,VALID,0,VALID,23.9159,VALID,341,VALID,0.616016,
2011-07-23, 01:46:04,VALID,998.889,VALID,0,VALID,82.4533,VALID,0,VALID,23.836,VALID,341,VALID,0.513281,
2011-07-23, 01:47:04,VALID,998.874,VALID,0,VALID,82.6364,VALID,0,VALID,23.8183,VALID,341,VALID,0.55,
2011-07-23, 01:48:04,VALID,998.863,VALID,0,VALID,83.0026,VALID,0,VALID,23.7988,VALID,341,VALID,0.394531,
2011-07-23, 01:49:04,VALID,998.833,VALID,0,VALID,83.4833,VALID,0,VALID,23.7189,VALID,341,VALID,0.424219,
2011-07-23, 01:50:04,VALID,998.813,VALID,0,VALID,83.9029,VALID,0,VALID,23.6409,VALID,341,VALID,0.279687,
2011-07-23, 01:51:04,VALID,998.813,VALID,0,VALID,84.3378,VALID,0,VALID,23.6036,VALID,341,VALID,0.310937,
2011-07-23, 01:52:04,VALID,998.791,VALID,0,VALID,85.0092,VALID,0,VALID,23.5256,VALID,341,VALID,0.780469,
2011-07-23, 01:53:04,VALID,998.829,VALID,0,VALID,85.2229,VALID,0,VALID,23.4671,VALID,341,VALID,0.761719,
2011-07-23, 01:54:04,VALID,998.782,VALID,0,VALID,84.8414,VALID,0,VALID,23.4653,VALID,341,VALID,0.8375,
2011-07-23, 01:55:04,VALID,998.823,VALID,0,VALID,84.3989,VALID,0,VALID,23.4671,VALID,355,VALID,0.972266,
2011-07-23, 01:56:04,VALID,998.81,VALID,0,VALID,83.8495,VALID,0,VALID,23.5061,VALID,359,VALID,0.962891,
2011-07-23, 01:57:04,VALID,998.792,VALID,0,VALID,83.0179,VALID,0,VALID,23.5841,VALID,1,VALID,1.23789,
2011-07-23, 01:58:04,VALID,998.77,VALID,0,VALID,82.995,VALID,0,VALID,23.6622,VALID,1,VALID,0.850781,
2011-07-23, 01:59:04,VALID,998.761,VALID,0,VALID,83.1781,VALID,0,VALID,23.6817,VALID,1,VALID,1.04922,
2011-07-23, 02:00:04,VALID,998.79,VALID,0,VALID,83.3002,VALID,0,VALID,23.6214,VALID,1,VALID,1.12383,
2011-07-23, 02:01:04,VALID,998.761,VALID,0,VALID,83.4604,VALID,0,VALID,23.6036,VALID,2,VALID,0.890625,
2011-07-23, 02:02:04,VALID,998.751,VALID,0,VALID,83.6206,VALID,0,VALID,23.5628,VALID,2,VALID,1.0168,
2011-07-23, 02:03:04,VALID,998.768,VALID,0,VALID,83.8572,VALID,0,VALID,23.5451,VALID,2,VALID,0.735547,
2011-07-23, 02:04:04,VALID,998.773,VALID,0,VALID,84.025,VALID,0,VALID,23.4671,VALID,2,VALID,0.830078,
2011-07-23, 02:05:04,VALID,998.795,VALID,0,VALID,84.2997,VALID,0,VALID,23.4671,VALID,2,VALID,0.815625,
2011-07-23, 02:06:04,VALID,998.781,VALID,0,VALID,84.6049,VALID,0,VALID,23.4263,VALID,2,VALID,0.742969,
2011-07-23, 02:07:04,VALID,998.79,VALID,0,VALID,85.0703,VALID,0,VALID,23.428,VALID,2,VALID,0.642578,
2011-07-23, 02:08:04,VALID,998.764,VALID,0,VALID,85.2152,VALID,0,VALID,23.389,VALID,2,VALID,0.606641,
2011-07-23, 02:09:04,VALID,998.79,VALID,0,VALID,85.4365,VALID,0,VALID,23.35,VALID,2,VALID,0.386719,
2011-07-23, 02:10:04,VALID,998.753,VALID,0,VALID,85.6501,VALID,0,VALID,23.311,VALID,2,VALID,0.260547,
2011-07-23, 02:11:04,VALID,998.779,VALID,0,VALID,85.8409,VALID,0,VALID,23.2719,VALID,2,VALID,0.315234,
2011-07-23, 02:12:04,VALID,998.773,VALID,0,VALID,86.0621,VALID,0,VALID,23.2524,VALID,2,VALID,0.302344,
2011-07-23, 02:13:04,VALID,998.752,VALID,0,VALID,86.2529,VALID,0,VALID,23.2524,VALID,2,VALID,0.3875,
2011-07-23, 02:14:04,VALID,998.741,VALID,0,VALID,86.1689,VALID,0,VALID,23.2719,VALID,2,VALID,0.360938,
2011-07-23, 02:15:04,VALID,998.713,VALID,0,VALID,86.0469,VALID,0,VALID,23.2312,VALID,2,VALID,0.358984,
2011-07-23, 02:16:04,VALID,998.737,VALID,0,VALID,85.9934,VALID,0,VALID,23.2524,VALID,2,VALID,0.257813,
2011-07-23, 02:17:04,VALID,998.783,VALID,0,VALID,86.0545,VALID,0,VALID,23.2524,VALID,2,VALID,0.608203,
2011-07-23, 02:18:04,VALID,998.778,VALID,0,VALID,86.1079,VALID,0,VALID,23.2524,VALID,2,VALID,0.491406,
2011-07-23, 02:19:04,VALID,998.788,VALID,0,VALID,86.1918,VALID,0,VALID,23.2329,VALID,2,VALID,0.482812,
2011-07-23, 02:20:04,VALID,998.817,VALID,0,VALID,86.352,VALID,0,VALID,23.2134,VALID,2,VALID,0.727344,
2011-07-23, 02:21:04,VALID,998.804,VALID,0,VALID,86.3826,VALID,0,VALID,23.1939,VALID,2,VALID,0.650781,
2011-07-23, 02:22:04,VALID,998.814,VALID,0,VALID,86.5733,VALID,0,VALID,23.1939,VALID,2,VALID,0.600781,
2011-07-23, 02:23:04,VALID,998.821,VALID,0,VALID,86.9014,VALID,0,VALID,23.1939,VALID,2,VALID,0.690234,
2011-07-23, 02:24:04,VALID,998.843,VALID,0,VALID,87.1913,VALID,0,VALID,23.1336,VALID,2,VALID,0.696875,
2011-07-23, 02:25:04,VALID,998.831,VALID,0,VALID,87.4965,VALID,0,VALID,23.1159,VALID,2,VALID,0.596875,
2011-07-23, 02:26:04,VALID,998.841,VALID,0,VALID,87.7635,VALID,0,VALID,23.0964,VALID,2,VALID,0.621875,
2011-07-23, 02:27:04,VALID,998.846,VALID,0,VALID,87.8856,VALID,0,VALID,23.0769,VALID,2,VALID,0.725391,
2011-07-23, 02:28:04,VALID,998.835,VALID,0,VALID,87.6338,VALID,0,VALID,23.0751,VALID,2,VALID,0.610547,
2011-07-23, 02:29:04,VALID,998.805,VALID,0,VALID,87.4889,VALID,0,VALID,23.0964,VALID,2,VALID,0.514453,
2011-07-23, 02:30:04,VALID,998.79,VALID,0,VALID,87.5194,VALID,0,VALID,23.1159,VALID,2,VALID,0.470313,
2011-07-23, 02:31:04,VALID,998.802,VALID,0,VALID,87.4736,VALID,0,VALID,23.0964,VALID,2,VALID,0.334375,
2011-07-23, 02:32:04,VALID,998.797,VALID,0,VALID,87.2447,VALID,0,VALID,23.0964,VALID,2,VALID,0.437109,
2011-07-23, 02:33:04,VALID,998.79,VALID,0,VALID,87.0158,VALID,0,VALID,23.0751,VALID,2,VALID,0.489453,
2011-07-23, 02:34:04,VALID,998.789,VALID,0,VALID,86.8022,VALID,0,VALID,23.1159,VALID,2,VALID,0.405859,
2011-07-23, 02:35:04,VALID,998.765,VALID,0,VALID,86.6649,VALID,0,VALID,23.1354,VALID,2,VALID,0.371094,
2011-07-23, 02:36:04,VALID,998.751,VALID,0,VALID,86.5275,VALID,0,VALID,23.1744,VALID,2,VALID,0.116016,
2011-07-23, 02:37:04,VALID,998.738,VALID,0,VALID,86.4817,VALID,0,VALID,23.1939,VALID,2,VALID,0.123828,
2011-07-23, 02:38:04,VALID,998.728,VALID,0,VALID,86.1994,VALID,0,VALID,23.1939,VALID,2,VALID,0,
2011-07-23, 02:39:04,VALID,998.668,VALID,0,VALID,86.146,VALID,0,VALID,23.1726,VALID,2,VALID,0.139844,
2011-07-23, 02:40:04,VALID,998.672,VALID,0,VALID,86.1689,VALID,0,VALID,23.1726,VALID,2,VALID,0.434766,
2011-07-23, 02:41:04,VALID,998.666,VALID,0,VALID,86.3215,VALID,0,VALID,23.2134,VALID,2,VALID,0.703125,
2011-07-23, 02:42:04,VALID,998.652,VALID,0,VALID,86.3215,VALID,0,VALID,23.2329,VALID,9,VALID,0.790234,
2011-07-23, 02:43:04,VALID,998.659,VALID,0,VALID,86.436,VALID,0,VALID,23.2719,VALID,42,VALID,0.764453,
2011-07-23, 02:44:04,VALID,998.694,VALID,0,VALID,86.7183,VALID,0,VALID,23.2915,VALID,42,VALID,0.626562,
2011-07-23, 02:45:04,VALID,998.691,VALID,0,VALID,86.9777,VALID,0,VALID,23.2719,VALID,42,VALID,0.544531,
2011-07-23, 02:46:04,VALID,998.669,VALID,0,VALID,87.1837,VALID,0,VALID,23.2312,VALID,42,VALID,0.586719,
2011-07-23, 02:47:04,VALID,998.73,VALID,0,VALID,87.4431,VALID,0,VALID,23.2134,VALID,40,VALID,0.566016,
2011-07-23, 02:48:04,VALID,998.705,VALID,0,VALID,87.6567,VALID,0,VALID,23.1726,VALID,37,VALID,0.733594,
2011-07-23, 02:49:04,VALID,998.71,VALID,0,VALID,87.6567,VALID,0,VALID,23.1744,VALID,21,VALID,0.654297,
2011-07-23, 02:50:04,VALID,998.708,VALID,0,VALID,87.6949,VALID,0,VALID,23.1354,VALID,21,VALID,0.402344,
2011-07-23, 02:51:04,VALID,998.729,VALID,0,VALID,87.8932,VALID,0,VALID,23.1354,VALID,21,VALID,0.494531,
2011-07-23, 02:52:04,VALID,998.718,VALID,0,VALID,88.0077,VALID,0,VALID,23.1141,VALID,21,VALID,0.366016,
2011-07-23, 02:53:04,VALID,998.72,VALID,0,VALID,87.8093,VALID,0,VALID,23.0964,VALID,21,VALID,0.389453,
2011-07-23, 02:54:04,VALID,998.696,VALID,0,VALID,87.8856,VALID,0,VALID,23.0751,VALID,21,VALID,0.448828,
2011-07-23, 02:55:04,VALID,998.713,VALID,0,VALID,88.2137,VALID,0,VALID,23.0751,VALID,21,VALID,0.366406,
2011-07-23, 02:56:04,VALID,998.675,VALID,0,VALID,88.496,VALID,0,VALID,23.0556,VALID,21,VALID,0.284375,
2011-07-23, 02:57:04,VALID,998.643,VALID,0,VALID,88.6257,VALID,0,VALID,23.0166,VALID,21,VALID,0.232031,
2011-07-23, 02:58:04,VALID,998.636,VALID,0,VALID,88.6943,VALID,0,VALID,23.0183,VALID,21,VALID,0.0464844,
2011-07-23, 02:59:04,VALID,998.605,VALID,0,VALID,88.9003,VALID,0,VALID,22.9776,VALID,21,VALID,0.440234,
2011-07-23, 03:00:04,VALID,998.57,VALID,0,VALID,89.2132,VALID,0,VALID,22.9793,VALID,23,VALID,0.798437,
2011-07-23, 03:01:04,VALID,998.565,VALID,0,VALID,89.4878,VALID,0,VALID,22.9581,VALID,23,VALID,0.589844,
2011-07-23, 03:02:04,VALID,998.568,VALID,0,VALID,89.5183,VALID,0,VALID,22.8995,VALID,23,VALID,0.321484,
2011-07-23, 03:03:04,VALID,998.562,VALID,0,VALID,89.6328,VALID,0,VALID,22.8818,VALID,23,VALID,0.348828,
2011-07-23, 03:04:04,VALID,998.53,VALID,0,VALID,89.793,VALID,0,VALID,22.8818,VALID,23,VALID,0.446094,
2011-07-23, 03:05:04,VALID,998.511,VALID,0,VALID,89.9074,VALID,0,VALID,22.841,VALID,23,VALID,0.491406,
2011-07-23, 03:06:04,VALID,998.5,VALID,0,VALID,89.938,VALID,0,VALID,22.8623,VALID,23,VALID,0.529688,
2011-07-23, 03:07:04,VALID,998.474,VALID,0,VALID,89.9074,VALID,0,VALID,22.8232,VALID,23,VALID,0.625,
2011-07-23, 03:08:04,VALID,998.453,VALID,0,VALID,89.9151,VALID,0,VALID,22.8037,VALID,23,VALID,0.522656,
2011-07-23, 03:09:04,VALID,998.435,VALID,0,VALID,89.8998,VALID,0,VALID,22.7842,VALID,23,VALID,0.574219,
2011-07-23, 03:10:04,VALID,998.391,VALID,0,VALID,89.8693,VALID,0,VALID,22.763,VALID,23,VALID,0.743359,
2011-07-23, 03:11:04,VALID,998.39,VALID,0,VALID,89.8693,VALID,0,VALID,22.763,VALID,23,VALID,0.745703,
2011-07-23, 03:12:04,VALID,998.353,VALID,0,VALID,89.8159,VALID,0,VALID,22.763,VALID,23,VALID,0.708594,
2011-07-23, 03:13:04,VALID,998.373,VALID,0,VALID,89.7854,VALID,0,VALID,22.763,VALID,23,VALID,0.864844,
2011-07-23, 03:14:04,VALID,998.335,VALID,0,VALID,89.854,VALID,0,VALID,22.8037,VALID,23,VALID,0.76875,
2011-07-23, 03:15:04,VALID,998.315,VALID,0,VALID,89.8311,VALID,0,VALID,22.7842,VALID,18,VALID,0.761328,
2011-07-23, 03:16:04,VALID,998.288,VALID,0,VALID,89.7625,VALID,0,VALID,22.786,VALID,8,VALID,0.629687,
2011-07-23, 03:17:04,VALID,998.29,VALID,0,VALID,89.6404,VALID,0,VALID,22.7257,VALID,8,VALID,0.566016,
2011-07-23, 03:18:04,VALID,998.312,VALID,0,VALID,89.587,VALID,0,VALID,22.7079,VALID,8,VALID,0.344141,
2011-07-23, 03:19:04,VALID,998.282,VALID,0,VALID,89.6404,VALID,0,VALID,22.7079,VALID,8,VALID,0.170703,
2011-07-23, 03:20:04,VALID,998.287,VALID,0,VALID,89.6404,VALID,0,VALID,22.6689,VALID,8,VALID,0.059375,
2011-07-23, 03:21:04,VALID,998.283,VALID,0,VALID,89.6709,VALID,0,VALID,22.6477,VALID,8,VALID,0.286719,
2011-07-23, 03:22:04,VALID,998.321,VALID,0,VALID,89.587,VALID,0,VALID,22.6104,VALID,8,VALID,0.00703125,
2011-07-23, 03:23:04,VALID,998.288,VALID,0,VALID,89.4726,VALID,0,VALID,22.5696,VALID,8,VALID,0.298047,
2011-07-23, 03:24:04,VALID,998.293,VALID,0,VALID,89.5412,VALID,0,VALID,22.4899,VALID,8,VALID,0.480469,
2011-07-23, 03:25:04,VALID,998.291,VALID,0,VALID,89.8083,VALID,0,VALID,22.4916,VALID,30,VALID,0.617969,
2011-07-23, 03:26:04,VALID,998.31,VALID,0,VALID,89.9914,VALID,0,VALID,22.4526,VALID,66,VALID,0.916016,
2011-07-23, 03:27:04,VALID,998.308,VALID,0,VALID,90.2355,VALID,0,VALID,22.4526,VALID,79,VALID,1.17109,
2011-07-23, 03:28:04,VALID,998.306,VALID,0,VALID,90.4644,VALID,0,VALID,22.4526,VALID,80,VALID,1.11445,
2011-07-23, 03:29:04,VALID,998.322,VALID,0,VALID,90.6933,VALID,0,VALID,22.4721,VALID,68,VALID,0.832812,
2011-07-23, 03:30:04,VALID,998.332,VALID,0,VALID,90.8611,VALID,0,VALID,22.4526,VALID,60,VALID,0.859766,
2011-07-23, 03:31:04,VALID,998.306,VALID,0,VALID,90.9298,VALID,0,VALID,22.4526,VALID,53,VALID,0.632422,
2011-07-23, 03:32:04,VALID,998.301,VALID,0,VALID,91.0519,VALID,0,VALID,22.4119,VALID,26,VALID,0.713281,
2011-07-23, 03:33:04,VALID,998.334,VALID,0,VALID,91.1511,VALID,0,VALID,22.4331,VALID,23,VALID,0.874609,
2011-07-23, 03:34:04,VALID,998.313,VALID,0,VALID,91.1663,VALID,0,VALID,22.4136,VALID,23,VALID,1.06484,
2011-07-23, 03:35:04,VALID,998.351,VALID,0,VALID,91.2579,VALID,0,VALID,22.3941,VALID,23,VALID,0.765625,
2011-07-23, 03:36:04,VALID,998.337,VALID,0,VALID,91.3494,VALID,0,VALID,22.3941,VALID,23,VALID,0.547656,
2011-07-23, 03:37:04,VALID,998.384,VALID,0,VALID,91.3647,VALID,0,VALID,22.3941,VALID,23,VALID,0.542188,
2011-07-23, 03:38:04,VALID,998.389,VALID,0,VALID,91.38,VALID,0,VALID,22.3746,VALID,23,VALID,0.501172,
2011-07-23, 03:39:04,VALID,998.396,VALID,0,VALID,91.4105,VALID,0,VALID,22.3746,VALID,23,VALID,0.553125,
2011-07-23, 03:40:04,VALID,998.393,VALID,0,VALID,91.3952,VALID,0,VALID,22.3534,VALID,23,VALID,0.707031,
2011-07-23, 03:41:04,VALID,998.416,VALID,0,VALID,91.3647,VALID,0,VALID,22.3746,VALID,23,VALID,0.6625,
2011-07-23, 03:42:04,VALID,998.418,VALID,0,VALID,91.2731,VALID,0,VALID,22.3746,VALID,23,VALID,0.737109,
2011-07-23, 03:43:04,VALID,998.425,VALID,0,VALID,91.1587,VALID,0,VALID,22.3746,VALID,23,VALID,0.745313,
2011-07-23, 03:44:04,VALID,998.451,VALID,0,VALID,91.029,VALID,0,VALID,22.3941,VALID,23,VALID,0.616797,
2011-07-23, 03:45:04,VALID,998.464,VALID,0,VALID,90.8917,VALID,0,VALID,22.4153,VALID,45,VALID,0.795313,
2011-07-23, 03:46:04,VALID,998.477,VALID,0,VALID,90.7314,VALID,0,VALID,22.4543,VALID,52,VALID,0.895312,